Location: Seven Kings
(51.5667°N, 0.1000°E)
Time: 18:11:40
(UTC+00:00)

X-37B - Pass Details

Date: 25 June 2021
Orbit: 383 x 392 km, 45.0° (Epoch: 01 July)

Event Time Altitude Azimuth Distance (km) Brightness Sun altitude
Rises 21:44:48 0° 239° (WSW) 2,253 4.5 -9.2°
Reaches altitude 10° 21:47:08 10° 224° (SW) 1,401 3.3 -9.4°
Maximum altitude 21:49:40 22° 170° (S) 891 1.8 -9.6°
Enters shadow 21:51:45 12° 122° (ESE) 1,264 2.6 -9.8°
